Tracking 18815 objects as of 19-October-2017
HD Live streaming from Space Station
objects crossing your sky now

SL-16 DEB

Track SL-16 DEB now!
10-day predictions


NORAD ID: 36031
Int'l Code: 1996-051N
Perigee: 744.9 km
Apogee: 772.9 km
Inclination: 70.9 °
Period: 99.9 minutes
Semi major axis: 7129 km
RCS: 0.0057 m2 (small)
Launch date: September 4, 1996
Source: Commonwealth of Independent States (former USSR) (CIS)
Launch site: TYURATAM MISSILE AND SPACE COMPLEX (TTMTR)

Note: This is SATELLITE DEBRIS
aabbcc
Your satellite tracking list
Your tracking list is empty





NASA's NSSDC Master Catalog

Two Line Element Set (TLE):
1 36031U 96051N   17291.94235016 +.00002808 +00000-0 +86833-3 0  9993
2 36031 070.8546 024.3165 0019645 276.2605 201.0417 14.42039988417048
Source of the keplerian elements: AFSPC